GPS BIIF-4

Last updated on Sun Apr 12 2026 00:02:39 GMT+0000 (Coordinated Universal Time)

1 39166U 13023A 26100.87505862 .00000008 00000+0 00000+0 0 9990 2 39166 54.5582 271.7139 0141993 50.4736 310.7606 2.00563957 94539
UTC large
Height (km)
Speed (km/s)
/
Latitude / Longitude
Inclination (degrees)
Orbital Period (minutes)
Azimuth
Elevation
Range (km)
Doppler Factor

Next 0 passes for location: London (51.5072 / 0.1276)

Sorry there are no passes over London.